Weather History for Paris / Le Bourget, France

Change the Weather History Date:

Monday, August 5, 2013

  Actual Average Record
Temperature  
Mean Temperature 72 °F -  
Max Temperature 86 °F 74 °F - ()
Min Temperature 57 °F 56 °F - ()
Cooling Degree Days 6    
Growing Degree Days 22 (Base 50)    
Moisture  
Dew Point 54 °F    
Average Humidity 53    
Maximum Humidity 82    
Minimum Humidity 33    
Precipitation  
Precipitation 0.00 in 0.07 in - ()
Sea Level Pressure  
Sea Level Pressure 29.97 in    
Wind  
Wind Speed 5 mph ()    
Max Wind Speed 17 mph    
Max Gust Speed -    
Visibility 6.2 miles    
Events Thunderstorm    
T = Trace of Precipitation, MM = Missing Value Source: Averaged Metar Reports

Daily Weather History Graph

Daily Weather History Graph

Search for Another Location

Airport:

Trip Planner

Search our weather history database for the weather conditions in past years. The results will help you decide how hot, cold, wet, or windy it might be!

Date:

Astronomy

Aug. 05, 2013 Rise Set
Actual Time 6:28 AM CEST 9:22 PM CEST
Civil Twilight 5:51 AM CEST 9:59 PM CEST
Nautical Twilight 5:04 AM CEST 10:46 PM CEST
Astronomical Twilight 4:06 AM CEST 11:43 PM CEST
Moon 5:10 AM CEST (8/5) 8:11 PM CEST (8/5)
Length of Visible Light 16h 07m
Length of Day
14h 54m
Waning Crescent, 2% of the Moon is Illuminated
Aug 5
Waning Crescent
Aug 6
New
Aug 14
First Quarter
Aug 21
Full
Aug 28
Last Quarter

Hourly Weather History & Observations

Time (CEST) Temp. Heat Index Dew Point Humidity Pressure Visibility Wind Dir Wind Speed Gust Speed Precip Events Conditions
12:00 AM 68.0 °F - 50.0 °F 52% 30.09 in 6.2 mi Calm Calm - N/A   Unknown
12:30 AM 66.2 °F - 50.0 °F 56% 30.09 in 6.2 mi North 3.5 mph - N/A   Unknown
1:00 AM 64.4 °F - 51.8 °F 64% 30.09 in 6.2 mi NE 1.2 mph - N/A   Partly Cloudy
1:30 AM 62.6 °F - 51.8 °F 68% 30.09 in 6.2 mi Variable 2.3 mph - N/A   Unknown
2:00 AM 60.8 °F - 51.8 °F 72% 30.06 in 6.2 mi NNE 2.3 mph - N/A   Unknown
2:30 AM 60.8 °F - 51.8 °F 72% 30.06 in 6.2 mi Calm Calm - N/A   Unknown
3:00 AM 59.0 °F - 51.8 °F 77% 30.06 in 6.2 mi NE 2.3 mph - N/A   Unknown
3:30 AM 59.0 °F - 51.8 °F 77% 30.06 in 6.2 mi NNE 2.3 mph - N/A   Unknown
4:00 AM 59.0 °F - 51.8 °F 77% 30.04 in 6.2 mi North 3.5 mph - N/A   Unknown
4:30 AM 59.0 °F - 50.0 °F 72% 30.04 in 6.2 mi North 2.3 mph - N/A   Unknown
5:00 AM 59.0 °F - 51.8 °F 77% 30.04 in 6.2 mi NE 3.5 mph - N/A   Unknown
5:30 AM 57.2 °F - 50.0 °F 77% 30.04 in 6.2 mi NE 3.5 mph - N/A   Unknown
6:00 AM 57.2 °F - 51.8 °F 82% 30.01 in 6.2 mi NE 4.6 mph - N/A   Unknown
6:30 AM 57.2 °F - 51.8 °F 82% 30.01 in 6.2 mi NE 3.5 mph - N/A   Unknown
7:00 AM 57.2 °F - 51.8 °F 82% 30.01 in 6.2 mi NE 4.6 mph - N/A   Unknown
7:30 AM 59.0 °F - 53.6 °F 82% 30.01 in 6.2 mi Variable 3.5 mph - N/A   Unknown
8:00 AM 60.8 °F - 53.6 °F 77% 30.01 in 6.2 mi Variable 1.2 mph - N/A   Unknown
8:30 AM 66.2 °F - 57.2 °F 73% 30.01 in 6.2 mi Variable 3.5 mph - N/A   Unknown
9:00 AM 68.0 °F - 55.4 °F 64% 29.98 in 6.2 mi Variable 2.3 mph - N/A   Unknown
9:30 AM 71.6 °F - 53.6 °F 53% 29.98 in 6.2 mi Variable 2.3 mph - N/A   Unknown
10:00 AM 75.2 °F - 51.8 °F 44% 29.98 in 6.2 mi Variable 2.3 mph - N/A   Unknown
10:30 AM 77.0 °F - 51.8 °F 41% 29.98 in 6.2 mi Variable 2.3 mph - N/A   Unknown
11:00 AM 78.8 °F - 51.8 °F 39% 29.98 in 6.2 mi SW 3.5 mph - N/A   Unknown
11:30 AM 80.6 °F 80.3 °F 53.6 °F 39% 29.95 in 6.2 mi SSW 3.5 mph - N/A   Unknown
12:00 PM 82.4 °F 81.4 °F 53.6 °F 37% 29.95 in 6.2 mi South 4.6 mph - N/A   Unknown
12:30 PM 82.4 °F 81.4 °F 53.6 °F 37% 29.92 in 6.2 mi South 5.8 mph - N/A   Unknown
1:00 PM 84.2 °F 83.0 °F 55.4 °F 37% 29.92 in 6.2 mi South 6.9 mph - N/A   Unknown
1:30 PM 84.2 °F 83.0 °F 55.4 °F 37% 29.92 in 6.2 mi SSW 9.2 mph - N/A   Unknown
2:00 PM 84.2 °F 83.0 °F 55.4 °F 37% 29.92 in 6.2 mi SSW 11.5 mph - N/A   Unknown
2:30 PM 86.0 °F 84.5 °F 55.4 °F 35% 29.92 in 6.2 mi WSW 9.2 mph - N/A   Unknown
3:00 PM 86.0 °F 84.5 °F 55.4 °F 35% 29.89 in 6.2 mi South 6.9 mph - N/A   Unknown
3:30 PM 86.0 °F 84.2 °F 53.6 °F 33% 29.89 in 6.2 mi SSW 11.5 mph - N/A   Unknown
4:00 PM 82.4 °F 82.5 °F 59.0 °F 45% 29.89 in 6.2 mi SSW 12.7 mph - N/A   Mostly Cloudy
4:30 PM 82.4 °F 82.0 °F 57.2 °F 42% 29.89 in 6.2 mi SSW 11.5 mph - N/A Thunderstorm Mostly Cloudy
5:00 PM 84.2 °F 82.8 °F 53.6 °F 35% 29.89 in 6.2 mi SSW 15.0 mph - N/A   Mostly Cloudy
5:30 PM 84.2 °F 82.8 °F 53.6 °F 35% 29.89 in 6.2 mi SW 12.7 mph - N/A   Unknown
6:00 PM 84.2 °F 82.8 °F 53.6 °F 35% 29.86 in 6.2 mi SW 15.0 mph - N/A   Unknown
6:30 PM 84.2 °F 82.8 °F 53.6 °F 35% 29.86 in 6.2 mi SW 16.1 mph - N/A   Unknown
7:00 PM 84.2 °F 83.5 °F 57.2 °F 40% 29.89 in 6.2 mi SSW 16.1 mph - N/A   Unknown
7:30 PM 82.4 °F 82.0 °F 57.2 °F 42% 29.89 in 6.2 mi SW 15.0 mph - N/A   Unknown
8:00 PM 82.4 °F 82.0 °F 57.2 °F 42% 29.89 in 6.2 mi SW 17.3 mph - N/A   Unknown
8:30 PM 80.6 °F 81.1 °F 59.0 °F 48% 29.89 in 6.2 mi SW 16.1 mph - N/A   Unknown
9:00 PM 80.6 °F 80.8 °F 57.2 °F 45% 29.89 in 6.2 mi SW 12.7 mph - N/A   Unknown
9:30 PM 78.8 °F - 55.4 °F 44% 29.92 in 6.2 mi WSW 11.5 mph - N/A   Unknown
10:00 PM 77.0 °F - 53.6 °F 44% 29.95 in 6.2 mi West 13.8 mph - N/A   Unknown
10:30 PM 75.2 °F - 51.8 °F 44% 29.95 in 6.2 mi WSW 12.7 mph - N/A   Unknown
11:00 PM 73.4 °F - 53.6 °F 50% 29.98 in 6.2 mi West 12.7 mph - N/A   Unknown
11:30 PM 73.4 °F - 53.6 °F 50% 29.98 in 6.2 mi West 10.4 mph - N/A   Unknown